W2JV-2 Weather Reports


Display with metric or nautical units.
time (UTC)temp
F
wind
direction
speed
MPH
gust
MPH
rain 1hr
in
rain 24hr
in
rain mn
in
humidity
%
barometer
mb
20260510213004 69 164 2.0 3.0 0.00 0.10 0.00 77 1012.4
20260510212503 69 209 2.0 3.0 0.00 0.10 0.00 77 1012.3
20260510212003 69 204 0.0 3.0 0.00 0.10 0.00 77 1012.3
20260510211503 70 215 1.0 3.0 0.00 0.10 0.00 77 1012.2
20260510211004 70 185 1.0 3.0 0.00 0.10 0.00 77 1012.2
20260510210504 70 160 2.0 5.0 0.00 0.11 0.00 78 1012.2
20260510210004 70 176 2.0 5.0 0.00 0.11 0.00 76 1012.4
20260510205504 70 192 2.0 6.0 0.00 0.11 0.00 76 1012.3
20260510205003 70 175 1.0 7.0 0.00 0.11 0.00 76 1012.2
20260510204503 71 190 2.0 6.0 0.00 0.11 0.00 76 1012.2
20260510203503 71 180 2.0 3.0 0.00 0.11 0.00 77 1012.2
20260510203003 71 224 2.0 8.0 0.00 0.11 0.00 77 1012.1
20260510202503 71 193 2.0 7.0 0.00 0.11 0.00 78 1012.2
20260510202005 71 180 2.0 3.0 0.00 0.11 0.00 78 1012.1
20260510201503 70 167 2.0 5.0 0.00 0.12 0.00 78 1012.1
20260510201003 70 248 1.0 5.0 0.00 0.12 0.00 79 1012.3
20260510200504 70 241 1.0 3.0 0.00 0.12 0.00 79 1012.3
20260510200003 69 258 0.0 1.0 0.00 0.13 0.00 78 1012.3
20260510195003 69 16 0.0 1.0 0.00 0.13 0.00 78 1012.4
20260510194504 69 349 1.0 2.0 0.00 0.13 0.00 78 1012.5
20260510194003 69 18 0.0 2.0 0.00 0.13 0.00 79 1012.6
20260510193004 69 347 0.0 2.0 0.00 0.14 0.00 77 1012.6
20260510192503 69 325 0.0 3.0 0.00 0.14 0.00 78 1012.6
20260510192005 69 9 1.0 3.0 0.00 0.14 0.00 80 1012.8
20260510191504 69 338 0.0 2.0 0.00 0.14 0.00 79 1012.7
20260510191004 69 350 1.0 3.0 0.00 0.15 0.00 78 1012.8
20260510190505 69 16 2.0 3.0 0.00 0.15 0.00 80 1012.8
20260510190004 69 341 0.0 3.0 0.00 0.15 0.00 81 1012.7
20260510185503 69 9 1.0 3.0 0.00 0.16 0.00 81 1012.8
20260510185003 69 359 1.0 2.0 0.00 0.16 0.00 83 1012.6
20260510184505 69 18 1.0 2.0 0.00 0.16 0.00 83 1012.7
20260510184004 68 0 0.0 2.0 0.00 0.16 0.00 84 1012.6
20260510182504 67 34 0.0 3.0 0.00 0.17 0.00 86 1012.7
20260510182004 66 28 1.0 3.0 0.00 0.17 0.00 86 1012.7
20260510181503 66 33 1.0 3.0 0.00 0.17 0.00 86 1012.7
20260510181003 66 119 0.0 2.0 0.00 0.18 0.00 87 1012.8
20260510180503 66 10 0.0 3.0 0.00 0.18 0.00 87 1012.8
20260510180004 65 328 1.0 5.0 0.00 0.18 0.00 87 1012.8
20260510175505 65 346 0.0 2.0 0.00 0.19 0.00 88 1013.0
20260510175003 65 10 1.0 3.0 0.00 0.19 0.00 89 1013.2
20260510174504 64 351 0.0 2.0 0.00 0.19 0.00 88 1013.1
20260510174003 64 317 1.0 3.0 0.00 0.19 0.00 89 1013.1
20260510173004 63 336 2.0 3.0 0.00 0.19 0.00 90 1012.9
20260510172004 64 339 2.0 3.0 0.00 0.19 0.00 91 1012.9
20260510171504 63 351 1.0 3.0 0.00 0.19 0.00 91 1012.9
20260510170503 62 352 1.0 3.0 0.00 0.19 0.00 92 1012.9
20260510165005 61 350 1.0 3.0 0.00 0.19 0.00 92 1013.0
20260510164503 61 350 0.0 0.0 0.00 0.19 0.00 92 1012.9
20260510164005 61 350 0.0 0.0 0.00 0.19 0.00 92 1013.0
20260510163504 60 350 0.0 0.0 0.00 0.19 0.00 92 1013.0
20260510163004 60 350 0.0 0.0 0.00 0.19 0.00 92 1013.2
20260510162504 60 350 0.0 0.0 0.00 0.19 0.00 92 1013.1
20260510161504 60 350 0.0 0.0 0.00 0.19 0.00 92 1013.2
20260510161003 59 4 0.0 0.0 0.00 0.19 0.00 92 1013.2
20260510160005 59 342 0.0 1.0 0.00 0.19 0.00 92 1013.2
20260510155505 59 348 1.0 2.0 0.00 0.19 0.00 92 1013.3
20260510155004 59 332 0.0 2.0 0.00 0.19 0.00 92 1013.3
20260510154504 58 6 1.0 3.0 0.00 0.19 0.00 92 1013.3
20260510154004 59 1 1.0 2.0 0.00 0.19 0.00 92 1013.4
20260510153004 59 354 0.0 2.0 0.00 0.19 0.00 92 1013.6
20260510152504 59 18 1.0 2.0 0.00 0.19 0.00 92 1013.6
20260510152004 60 357 1.0 2.0 0.00 0.19 0.00 92 1013.6
20260510151504 60 274 0.0 2.0 0.00 0.19 0.00 93 1013.5
20260510151004 60 242 0.0 2.0 0.00 0.19 0.00 92 1013.5
20260510150504 60 228 0.0 1.0 0.00 0.19 0.00 93 1013.5
20260510145503 59 228 1.0 3.0 0.00 0.19 0.00 93 1013.5
20260510145002 59 175 1.0 2.0 0.00 0.19 0.00 93 1013.5
20260510144504 59 219 1.0 2.0 0.00 0.19 0.00 92 1013.4
20260510144003 59 249 1.0 3.0 0.00 0.19 0.00 92 1013.3
20260510143503 59 184 1.0 2.0 0.00 0.19 0.00 92 1013.1
20260510143004 59 253 1.0 2.0 0.00 0.19 0.00 93 1013.1
20260510142003 58 135 1.0 2.0 0.00 0.19 0.00 92 1013.0
20260510141003 58 186 0.0 1.0 0.00 0.19 0.00 92 1013.1
20260510140002 58 230 0.0 0.0 0.00 0.19 0.00 92 1013.1
20260510135502 57 251 0.0 0.0 0.00 0.19 0.00 92 1013.1
20260510135002 57 215 0.0 0.0 0.00 0.19 0.00 92 1012.9
20260510134002 57 215 0.0 0.0 0.00 0.19 0.00 92 1013.0
20260510133504 57 187 0.0 0.0 0.00 0.19 0.00 93 1012.8
20260510133003 57 215 0.0 0.0 0.00 0.19 0.00 92 1012.8
20260510132502 57 217 0.0 0.0 0.00 0.19 0.00 92 1012.8
20260510132002 57 217 0.0 0.0 0.00 0.19 0.00 92 1012.9
20260510131503 57 217 0.0 0.0 0.00 0.19 0.00 92 1012.9
20260510131004 56 217 0.0 1.0 0.00 0.19 0.00 92 1012.9
20260510130503 56 255 0.0 2.0 0.00 0.19 0.00 92 1012.8
20260510125503 56 228 0.0 0.0 0.00 0.19 0.00 92 1012.6
20260510125003 56 227 0.0 1.0 0.00 0.19 0.00 92 1012.6
20260510124002 55 230 0.0 1.0 0.00 0.19 0.00 92 1012.6
20260510123502 55 257 0.0 2.0 0.00 0.19 0.00 92 1012.5
20260510123003 55 257 0.0 2.0 0.00 0.19 0.00 92 1012.5
20260510122503 55 182 1.0 3.0 0.00 0.19 0.00 92 1012.4
20260510121503 55 208 1.0 3.0 0.00 0.19 0.00 92 1012.0
20260510121003 55 236 0.0 1.0 0.00 0.19 0.00 92 1012.0
20260510120504 55 182 0.0 2.0 0.00 0.19 0.00 92 1012.1
20260510115503 54 235 1.0 1.0 0.00 0.19 0.00 92 1012.3
20260510115002 54 298 0.0 2.0 0.00 0.19 0.00 92 1012.2
20260510114502 54 269 1.0 3.0 0.00 0.19 0.00 92 1012.1
20260510114004 54 218 0.0 0.0 0.00 0.19 0.00 92 1011.9
20260510113504 54 196 0.0 0.0 0.00 0.19 0.00 92 1011.8
20260510113003 54 215 0.0 0.0 0.00 0.19 0.00 92 1011.9
20260510112504 54 196 0.0 0.0 0.00 0.19 0.00 92 1011.9
20260510112004 54 195 0.0 0.0 0.00 0.19 0.00 92 1011.9
20260510111502 54 315 0.0 0.0 0.00 0.19 0.00 92 1011.9
20260510111002 54 314 0.0 0.0 0.00 0.19 0.00 92 1012.0
20260510110502 53 314 0.0 0.0 0.00 0.19 0.00 92 1012.1
20260510110002 54 314 0.0 0.0 0.00 0.19 0.00 92 1012.1
20260510105502 54 315 0.0 0.0 0.00 0.19 0.00 92 1012.0
20260510105003 53 242 0.0 1.0 0.00 0.19 0.00 92 1012.0
20260510104502 53 248 0.0 2.0 0.00 0.19 0.00 92 1012.0
20260510104004 53 256 0.0 2.0 0.00 0.19 0.00 92 1011.9
20260510103002 53 296 0.0 1.0 0.00 0.19 0.00 92 1011.9
20260510102002 53 321 0.0 1.0 0.00 0.19 0.00 92 1012.0
20260510101502 53 321 0.0 0.0 0.00 0.19 0.00 92 1012.1
20260510101004 53 321 0.0 1.0 0.00 0.19 0.00 92 1012.1
20260510100502 53 321 0.0 1.0 0.00 0.19 0.00 92 1012.1
20260510100003 53 321 0.0 1.0 0.00 0.19 0.00 92 1012.2
20260510095502 53 322 0.0 2.0 0.00 0.19 0.00 92 1012.2
20260510095003 53 35 0.0 1.0 0.00 0.19 0.00 92 1012.2
20260510094503 53 35 0.0 2.0 0.00 0.19 0.00 92 1012.2
20260510094003 53 36 0.0 2.0 0.00 0.19 0.00 92 1012.3
20260510093503 53 359 0.0 2.0 0.00 0.19 0.00 92 1012.3
20260510093003 53 357 0.0 2.0 0.00 0.19 0.00 92 1012.3
20260510092503 53 342 0.0 2.0 0.00 0.19 0.00 92 1012.3
20260510092003 53 16 1.0 3.0 0.00 0.19 0.00 92 1012.1
20260510091502 54 350 1.0 3.0 0.00 0.19 0.00 92 1012.2
20260510090003 54 353 1.0 2.0 0.00 0.19 0.00 92 1012.1
20260510085502 54 348 0.0 0.0 0.00 0.19 0.00 92 1011.5
20260510085003 54 348 0.0 0.0 0.00 0.19 0.00 92 1011.4
20260510084502 54 348 0.0 0.0 0.00 0.19 0.00 92 1011.4
20260510083503 54 5 0.0 0.0 0.00 0.19 0.00 92 1011.3
20260510083003 54 5 0.0 0.0 0.00 0.19 0.00 92 1011.4
20260510082503 54 5 0.0 0.0 0.00 0.19 0.00 92 1011.4
20260510082003 54 5 0.0 0.0 0.00 0.19 0.00 92 1011.5
20260510081504 54 5 0.0 0.0 0.00 0.19 0.00 92 1011.4
20260510081004 54 5 0.0 0.0 0.00 0.19 0.00 92 1011.3
20260510080502 54 5 0.0 0.0 0.00 0.19 0.00 92 1011.3
20260510080004 54 5 0.0 0.0 0.00 0.19 0.00 92 1011.3
20260510075503 54 5 0.0 0.0 0.00 0.19 0.00 92 1011.2
20260510075003 54 5 0.0 0.0 0.00 0.19 0.00 92 1011.2
20260510074503 54 5 0.0 0.0 0.00 0.19 0.00 92 1011.3
20260510074002 54 5 0.0 0.0 0.00 0.19 0.00 92 1011.4
20260510073003 54 5 0.0 0.0 0.00 0.19 0.00 92 1011.4
20260510072503 55 5 0.0 0.0 0.00 0.19 0.00 92 1011.4
20260510071502 55 168 0.0 0.0 0.00 0.19 0.00 92 1011.3
20260510071003 55 168 0.0 0.0 0.00 0.19 0.00 92 1011.2
20260510070003 55 168 0.0 0.0 0.00 0.19 0.00 92 1011.0
20260510065503 55 168 0.0 0.0 0.00 0.19 0.00 92 1010.9
20260510064502 55 168 0.0 0.0 0.00 0.19 0.00 92 1010.9
20260510063503 55 168 0.0 0.0 0.00 0.19 0.00 92 1010.9
20260510063004 55 168 0.0 0.0 0.00 0.19 0.00 92 1010.9
20260510062003 55 168 0.0 0.0 0.00 0.19 0.00 92 1010.9
20260510061503 55 168 0.0 0.0 0.00 0.19 0.00 92 1010.9
20260510061004 55 168 0.0 0.0 0.00 0.19 0.00 92 1010.9
20260510060502 54 168 0.0 0.0 0.00 0.19 0.00 92 1010.8
20260510060002 55 168 0.0 0.0 0.00 0.19 0.00 92 1010.9
20260510055502 55 168 0.0 0.0 0.00 0.19 0.00 92 1010.9
20260510055003 55 219 0.0 0.0 0.00 0.19 0.00 92 1011.0
20260510054503 55 219 0.0 0.0 0.00 0.19 0.00 92 1011.1
20260510054003 55 219 0.0 0.0 0.00 0.19 0.00 92 1011.1
20260510053503 55 219 0.0 0.0 0.00 0.19 0.00 92 1011.1
20260510052503 55 219 0.0 0.0 0.00 0.19 0.00 92 1011.1
20260510052003 55 219 0.0 0.0 0.00 0.19 0.00 92 1011.1
20260510051503 55 219 0.0 0.0 0.00 0.19 0.00 92 1011.1
20260510051002 55 219 0.0 0.0 0.00 0.19 0.00 92 1011.1
20260510050502 54 219 0.0 0.0 0.00 0.19 0.00 91 1011.2
20260510050003 54 219 0.0 0.0 0.00 0.19 0.00 91 1011.2
20260510045502 54 219 0.0 0.0 0.00 0.19 0.00 91 1011.3
20260510045003 54 219 0.0 0.0 0.00 0.19 0.00 91 1011.3
20260510044503 54 219 0.0 0.0 0.00 0.19 0.00 91 1011.3
20260510044003 54 238 0.0 0.0 0.00 0.19 0.00 91 1011.2
20260510043503 54 235 0.0 0.0 0.00 0.19 0.00 91 1011.2
20260510042004 54 235 0.0 0.0 0.00 0.19 0.00 91 1011.1
20260510041502 54 249 0.0 0.0 0.00 0.19 0.00 91 1011.0
20260510041003 54 249 0.0 0.0 0.00 0.19 0.00 91 1010.9
20260510035503 54 249 0.0 0.0 0.00 0.19 0.19 91 1010.7
20260510035003 54 182 0.0 2.0 0.00 0.19 0.19 91 1010.8
20260510034503 54 199 0.0 0.0 0.00 0.19 0.19 91 1010.8
20260510034002 54 199 0.0 0.0 0.00 0.19 0.19 91 1010.7
20260510033502 54 205 0.0 0.0 0.00 0.19 0.19 91 1010.8
20260510032004 54 230 0.0 0.0 0.00 0.19 0.19 91 1010.9
20260510031503 55 230 0.0 2.0 0.00 0.19 0.19 91 1011.0
20260510031003 55 233 0.0 3.0 0.00 0.19 0.19 91 1010.9
20260510030003 55 194 0.0 0.0 0.00 0.19 0.19 91 1010.8
20260510025503 55 201 0.0 0.0 0.00 0.19 0.19 91 1010.8
20260510024504 55 201 0.0 0.0 0.00 0.19 0.19 91 1010.8
20260510024003 55 201 0.0 0.0 0.00 0.19 0.19 91 1010.8
20260510023503 55 201 0.0 0.0 0.00 0.19 0.19 91 1010.8
20260510023004 55 201 0.0 0.0 0.00 0.19 0.19 91 1010.8
20260510022503 55 201 0.0 1.0 0.00 0.19 0.19 91 1010.8
20260510022003 55 192 1.0 1.0 0.00 0.19 0.19 91 1010.8
20260510021502 55 167 0.0 2.0 0.00 0.19 0.19 91 1010.8
20260510021004 55 201 0.0 3.0 0.00 0.19 0.19 91 1010.8
20260510020503 55 177 0.0 2.0 0.00 0.19 0.19 91 1010.8
20260510020002 55 160 0.0 2.0 0.00 0.19 0.19 91 1010.8
20260510015504 55 213 0.0 2.0 0.00 0.19 0.19 91 1010.8
20260510015003 55 149 1.0 3.0 0.00 0.19 0.19 90 1010.7
20260510014503 55 242 0.0 3.0 0.00 0.19 0.19 90 1010.8
20260510014004 55 167 0.0 3.0 0.00 0.19 0.19 90 1010.7
20260510013503 55 192 0.0 3.0 0.00 0.19 0.19 90 1010.7
20260510013003 55 190 0.0 0.0 0.00 0.19 0.19 90 1010.7
20260510012504 54 168 0.0 0.0 0.00 0.19 0.19 90 1010.6
20260510012004 54 168 0.0 0.0 0.00 0.19 0.19 90 1010.7
20260510011503 55 167 0.0 0.0 0.00 0.19 0.19 90 1010.6
20260510010503 55 192 0.0 0.0 0.00 0.19 0.19 90 1010.5
20260510010004 55 182 0.0 0.0 0.00 0.19 0.19 90 1010.6
20260510005503 55 231 0.0 0.0 0.00 0.19 0.19 90 1010.5
20260510005003 55 156 0.0 0.0 0.00 0.19 0.19 90 1010.5
20260510004503 55 182 0.0 0.0 0.00 0.19 0.19 90 1010.4
20260510003502 56 182 0.0 0.0 0.00 0.19 0.19 90 1010.3
20260510003003 56 182 0.0 0.0 0.01 0.19 0.19 90 1010.4
20260510001503 56 154 0.0 2.0 0.03 0.19 0.19 90 1010.1
20260510001003 56 124 0.0 0.0 0.04 0.19 0.19 90 1010.1
20260510000003 56 115 0.0 0.0 0.07 0.19 0.19 90 1010.1
20260509235503 56 115 0.0 0.0 0.08 0.19 0.19 90 1010.1
20260509235004 56 115 0.0 1.0 0.09 0.19 0.19 90 1010.1
20260509234003 56 115 0.0 2.0 0.09 0.19 0.19 90 1010.1
20260509233503 56 194 1.0 3.0 0.10 0.19 0.19 90 1010.2
20260509232003 56 207 0.0 2.0 0.08 0.17 0.17 89 1010.6
20260509231503 56 190 1.0 3.0 0.07 0.16 0.16 89 1010.5
20260509231004 56 160 1.0 2.0 0.06 0.15 0.15 89 1010.2
20260509225503 57 204 1.0 2.0 0.02 0.11 0.11 89 1011.1
20260509225003 57 238 0.0 0.0 0.01 0.10 0.10 89 1011.3
20260509224503 57 245 0.0 0.0 0.01 0.10 0.10 89 1011.0
20260509224004 57 228 0.0 0.0 0.01 0.10 0.10 89 1010.8
20260509223503 57 228 0.0 0.0 0.00 0.09 0.09 88 1010.7
20260509223003 57 222 1.0 2.0 0.00 0.09 0.09 88 1010.8
20260509222504 57 216 0.0 0.0 0.00 0.09 0.09 88 1010.9
20260509222003 57 240 0.0 0.0 0.00 0.09 0.09 88 1010.9
20260509220003 56 241 1.0 3.0 0.01 0.09 0.09 87 1010.9
20260509215004 56 226 1.0 3.0 0.01 0.09 0.09 86 1011.1
20260509214502 56 229 1.0 3.0 0.01 0.09 0.09 85 1011.2
20260509213502 56 164 1.0 3.0 0.01 0.09 0.09 84 1011.2